Regional Weather Roundup
Issued by NWS

Home | Current Version | Previous Version | Text Only | Print | Product List | Glossary On
Versions: 1 2 3 4 5 6 7 8 9 10 11 12 13 14 15 16 17 18 19 20 21 22 23 24 25 26 27
000
ASUS42 KKEY 300510
RWRKEY

FLORIDA REGIONAL WEATHER ROUNDUP FOR THE FLORIDA KEYS
NATIONAL WEATHER SERVICE KEY WEST FLORIDA
100 AM EDT TUE MAY 30 2017

...SOUTH FLORIDA AND THE KEYS...

CITY           SKY/WX    TMP DP  RH WIND       PRES   REMARKS
FORT MYERS     CLEAR     81  75  82 CALM      30.08S
SW REGIONAL AP PTCLDY    76  71  85 CALM      30.09S
NAPLES         CLEAR     78  78 100 CALM      30.09S
MIAMI          PTCLDY    82  73  74 S5        30.10S
WEST KENDALL     N/A    N/A N/A N/A MISG        N/A
HOMESTEAD      CLEAR     77  76  96 CALM      30.10S
MARATHON       CLEAR     84  75  74 E8        30.08F HX  92
BOCA CHICA NAS PTCLDY    82  75  79 E9        30.09S
KEY WEST INTL  PTCLDY    84  73  69 E12       30.09S HX  90

...INTERNATIONAL WEATHER...

CITY           SKY/WX    TMP DP  RH WIND       PRES   REMARKS
NASSAU BAHAMAS   N/A     82  75  78 E5        30.12S
CANCUN MEXICO    N/A    N/A N/A N/A MISG        N/A
COZUMEL MEXICO   N/A    N/A N/A N/A MISG        N/A

ADJACENT COASTAL WATERS...

STATION/POSITION TIME  SKY/WX   TEMP    WIND        PRES    WAVE
                                AIR SEA DIR/SP/G            HT/PER
                 (UTC)          (F)     (DEG/KT/KT) (MB)    (FT/S)
PULASKI SHOAL LI 0500            83      90/ 12/ 13 1018.8S
SAND KEY         0450            83     110/ 13/ 14 1019.6R
LONG KEY         0400            84 89  100/ 10/ 11 1019.2R
MOLASSES REEF    0400            83 82   60/  5/  7 1019.5R
FOWEY ROCKS      0400            83 82  120/ 12/ 12 1019.6F
Buoy 42097       0500                                 N/A     1/ 6

$$




USA.gov is the U.S. government's official web portal to all federal, state and local government web resources and services.